DECAYED

CZ-6A DEB, 56615 (Decayed)

Orbit data source: Space-Track

CZ-6A DEB, 56615 was space debris in SSO originally from a launch on Fri, 11 Nov 2022 UTC launched from the Taiyaun Space Center, China (TSC). Debris objects in space refer to the collection of defunct objects orbiting the Earth. Examples of debris include non-operational satellites, rocket bodies, and fragments generated from explosions, collisions, or faulty payload assembly.

Not visible in the next 10 days
Identifier
56615, 2022-151AEP
Orbit
Decayed
Country
Flag of CNCN / PRC
Related business
Manufacturer
SAST
Mission
Decayed spacecraft
Bus & Motor
Unknown
Mass
Unknown
Launch date (UTC)
2022-11-11 (3 years ago)
Launch vehicle
Unknown
Launch site
Taiyaun Space Center, China (TSC)
Object type
Payload
Rocket body
Debris
Shape & HBR
Unknown shape, 0.1 m
Radar Cross Section
Small (<0.1 m²)

Expand to show TLE details & history
Last TLE update: 3 months ago

TLE from 3 months ago
0 CZ-6A DEB
1 56615U 22151AEP 25244.19887737  .03724912  14698-1  19048-1 0  9991
2 56615  98.6162 323.8303 0025591 300.8726  59.0023 15.84458493 56862
Epoch: 2025-09-01T04:46Z
TLE epoch observation values (Epoch: 2025-09-01T04:46:23.004Z)
Latitude
-0.00006°
Longitude
-88.37344°
Altitude
312.194 km
Speed
7.726 km/s
True Right ascension
21h 35m 19s
True Declination
0° 00' 00"
Sunlit
Object was in full shadow at epoch
Visualization orbit readout
Latitude
Unknown
Longitude
Unknown
Altitude
Unknown
Speed
Unknown
Apparent Right ascension
Unknown
Apparent Declination
Unknown
Sunlit
N/A
Visualization observer readout
Local Sidereal Time
15:07:29
Azimuth
Unknown
Elevation
Unknown
Doppler factor
Unknown
Orbital elements
Apogee altitude
331.916 km
Perigee altitude
297.66 km
Semi-major axis
6,692.925 km
Eccentricity
0.00256
Inclination
98.6162°
RAAN
323.8303°
Arg. of periapsis
300.8726°
True anomaly
59.25409°
Mean anomaly
59.0023°
Eccentric anomaly
59.12815°
Mean motion
3.96387 °/min
Orbital period
90.82 mins
BSTAR
0.019048
Loading maneuver chart data...
Computing Atmospheric mass density...
Loading historical data...
Loading historical data...
Loading historical data...
Loading historical data...
Loading historical data...
Loading historical data...
Loading historical data...

Documentation

Showing up to 5 results
|